Lapse_Rate
1.0 1.4 1.3 1.5 1.7 1.8 1.7 2.3 2.1 1.8 1.5 1.0 0.8 0.5 -0.1 -0.6 -1.1 -0.9 -1.3 2.7 1.1 2.4 3.6 3.6 4.9 5.2 5.3 5.9 5.5 4.5 6.5 6.5 6.5 6.5 6.5 6.6 6.6 6.6 6.3 7.3 6.8 6.6 7.3 6.8 5.4
1.4 1.7 1.7 1.7 1.9 1.6 2.0 2.3 2.1 1.8 1.4 1.3 0.8 0.1 -0.5 -0.9 -1.3 -2.3 -0.1 -0.1 1.0 2.2 5.1 5.5 5.5 5.3 6.0 6.0 5.9 6.7 6.5 6.5 6.5 6.6 6.5 6.8 6.7 6.9 7.0 7.0 6.9 6.2 5.1 5.6 5.5
1.3 1.9 1.6 1.5 2.0 1.5 2.2 2.5 2.2 1.9 1.6 1.2 0.5 -0.2 -0.6 -0.8 -0.5 3.1 2.6 -0.3 0.2 2.6 5.0 5.4 5.2 5.9 6.3 6.1 6.3 6.7 6.5 6.5 6.6 6.6 6.6 6.8 6.8 6.7 7.0 6.5 6.9 7.0 5.3 5.0 5.6
1.7 1.9 1.6 1.2 1.8 1.5 2.3 2.3 2.0 1.6 1.5 0.8 0.0 -0.2 -0.5 -0.8 6.5 5.5 2.0 -0.1 0.4 2.7 4.6 5.1 5.9 6.2 6.6 6.5 6.1 6.5 6.6 6.5 6.7 5.7 6.0 6.7 7.0 6.8 7.0 6.7 5.3 4.6 3.7 4.3 5.5
1.3 1.7 1.3 1.2 1.6 1.5 2.1 2.3 1.8 1.9 1.1 0.1 -0.2 -0.2 -0.6 1.6 2.3 2.6 -0.1 -0.0 0.7 2.7 4.7 5.0 5.8 6.0 6.5 6.6 6.5 6.5 6.6 6.3 5.7 4.7 5.3 5.1 6.7 6.4 6.6 4.0 4.3 4.5 4.9 4.9 4.4
1.4 1.5 0.8 1.2 1.6 1.6 1.9 2.2 1.9 1.4 0.7 -0.5 -0.2 -0.6 -0.9 6.3 4.6 1.9 0.3 1.2 2.5 3.4 3.9 5.1 5.5 5.4 6.2 6.5 6.5 6.3 6.4 6.6 6.1 5.9 5.3 6.4 6.5 6.5 5.9 4.4 4.0 4.2 4.7 5.1 5.2
1.5 1.4 1.1 1.2 1.4 1.9 2.1 2.0 1.3 0.8 -0.2 -0.5 -0.4 -0.1 -0.1 2.4 3.8 1.4 2.4 2.5 1.9 3.5 3.6 3.6 5.0 6.1 5.7 6.5 5.8 5.9 6.5 6.5 6.6 6.3 6.4 5.7 6.5 6.5 6.6 5.5 5.3 7.2 6.2 5.8 6.5
1.5 1.4 1.2 1.4 1.6 2.0 1.8 1.1 0.5 -0.1 -0.5 -0.7 -0.7 -0.6 1.0 2.0 2.0 2.2 1.7 3.1 2.1 3.3 4.6 5.2 5.0 6.1 6.0 5.6 5.9 6.5 6.5 6.5 6.5 6.6 6.2 6.4 6.5 6.6 5.7 7.2 7.1 7.1 6.6 6.2 5.5
1.4 1.4 1.2 0.8 1.5 1.7 0.7 0.2 -0.2 -0.5 -0.6 -1.1 -0.8 -0.5 3.0 3.6 4.3 4.8 3.7 5.7 3.1 2.6 3.5 4.3 6.0 5.3 6.2 6.5 6.5 6.5 6.5 6.5 6.5 6.7 6.5 6.5 6.5 6.8 5.8 6.9 7.0 6.0 5.6 5.2 4.7
1.4 1.1 0.9 0.8 1.3 1.1 0.2 -0.1 -0.7 -0.6 -0.4 -0.3 0.0 2.8 2.2 5.9 4.5 4.6 5.0 5.3 5.1 4.2 5.5 5.8 4.9 6.5 6.5 6.5 6.5 6.5 6.5 6.5 6.5 6.5 6.5 6.5 6.5 6.6 7.1 7.0 6.8 6.2 5.2 4.6 3.5
1.3 1.1 0.6 1.1 0.9 0.0 -0.8 -0.4 1.3 2.1 -0.1 3.3 4.3 4.2 4.3 4.5 2.9 5.5 4.7 5.4 4.6 3.9 6.5 5.6 6.5 6.5 6.5 6.5 6.5 6.5 6.5 6.5 6.5 6.5 6.5 6.5 6.5 6.5 7.1 7.1 7.0 7.1 6.4 4.8 3.1
1.2 0.8 0.4 1.2 0.1 -0.8 -1.0 -0.2 3.6 5.6 5.6 0.4 2.4 2.9 2.7 3.9 5.8 5.7 5.1 5.5 5.5 6.5 6.5 6.5 6.5 6.5 6.5 6.5 6.5 6.5 6.5 6.5 6.5 6.5 6.5 6.5 6.5 6.5 6.9 6.9 7.2 7.2 7.0 5.5 4.2
0.7 0.3 0.6 0.8 -0.9 -1.4 -1.7 -1.3 2.0 4.4 5.8 5.2 2.5 3.9 5.4 4.7 5.8 6.0 5.4 4.9 6.4 6.5 6.5 6.5 6.5 6.5 6.5 6.5 6.5 6.5 6.5 6.5 6.5 6.5 6.5 6.5 6.5 6.5 6.6 7.1 7.3 7.4 7.3 6.9 5.8
0.1 -0.1 0.6 -0.6 -0.5 -1.3 -1.3 0.5 -0.3 2.1 6.5 6.5 6.2 6.3 5.8 5.2 6.2 4.9 4.4 5.0 6.3 6.5 6.5 6.5 6.4 6.5 6.5 6.5 6.5 6.5 6.5 6.5 6.5 6.5 6.5 6.5 6.5 6.5 6.5 6.5 6.8 7.2 7.3 7.3 6.2
-0.3 -0.5 -0.2 0.2 -1.9 0.1 3.2 1.9 0.9 3.7 6.5 6.5 6.4 6.5 4.8 6.0 6.1 6.3 4.0 4.8 6.5 6.5 6.5 6.5 6.5 6.5 6.5 6.5 6.5 6.5 6.5 6.5 6.5 6.5 6.5 6.5 6.5 6.5 6.5 6.5 6.5 7.0 7.3 7.0 6.2
-0.4 -0.9 -0.3 -0.9 -2.2 -1.7 0.1 1.9 2.8 6.5 6.5 6.5 6.3 6.5 6.4 5.5 5.7 4.7 5.4 4.3 4.8 6.5 6.5 6.5 6.1 6.5 6.5 6.5 6.5 6.5 6.5 6.5 6.5 6.5 6.5 6.5 6.5 6.5 6.5 6.5 6.5 7.0 7.2 6.9 6.3
-0.6 -1.2 -0.5 -1.8 0.3 -0.7 -0.3 2.5 6.5 6.5 6.5 6.5 6.5 6.5 6.5 6.5 6.5 6.5 6.5 6.5 6.5 6.5 6.5 6.5 6.5 6.5 6.3 6.5 6.5 6.5 6.5 6.5 6.5 6.5 6.5 6.5 6.5 6.5 6.5 6.5 6.6 6.8 7.2 6.5 5.7
-0.7 -0.8 -0.6 -2.3 -2.2 -3.1 0.9 6.0 6.5 6.5 6.5 6.5 6.5 6.5 6.5 6.5 6.5 6.5 6.5 6.5 6.5 6.5 6.5 6.5 6.5 6.5 6.5 6.5 6.5 6.5 6.5 6.5 6.5 6.5 6.5 6.5 6.5 6.5 6.5 7.0 7.0 7.1 7.4 6.1 5.8
-0.6 -0.5 -0.8 -1.7 -1.0 -2.3 2.6 6.5 6.5 6.5 6.5 6.5 6.5 6.5 6.5 6.5 6.5 6.5 6.5 6.5 6.5 6.5 6.5 6.5 6.5 6.5 6.5 6.5 6.5 6.5 6.5 6.5 6.5 6.5 6.5 6.5 6.5 6.5 6.5 6.5 6.9 7.0 6.7 7.0 6.1
-0.2 0.3 0.6 0.6 -1.3 0.5 5.3 6.5 6.5 6.4 6.5 6.5 6.5 6.5 6.5 6.5 6.5 6.5 6.5 6.5 6.5 6.5 6.4 6.5 6.5 6.5 6.5 6.4 6.5 6.5 6.5 6.5 6.5 6.5 6.5 6.5 6.5 6.5 6.5 6.5 6.5 6.7 7.0 6.4 4.9
1.9 4.1 2.1 -0.1 0.2 1.3 6.5 6.5 6.5 5.2 5.7 6.5 6.5 6.5 6.5 6.5 6.5 6.5 6.5 6.5 6.5 6.5 6.4 6.5 6.5 6.5 6.5 6.5 6.5 6.5 6.5 6.5 6.5 6.5 6.5 6.5 6.5 6.5 6.5 6.5 6.5 6.8 6.9 5.4 4.8
2.6 6.4 1.5 0.1 5.0 5.8 6.5 6.5 5.6 6.3 5.7 6.4 6.5 6.5 6.5 6.5 6.5 6.5 6.5 6.5 5.8 6.3 6.5 6.5 6.5 6.5 6.5 6.5 6.5 6.5 6.5 6.5 6.5 6.5 6.5 6.5 6.5 6.5 6.5 6.8 6.8 6.9 5.0 4.9 4.8
3.1 3.8 2.0 1.8 6.5 6.5 6.4 6.5 6.3 6.5 6.5 6.5 6.5 6.5 6.5 6.5 6.5 6.5 6.5 6.3 5.8 6.4 6.5 6.5 6.5 6.5 6.5 6.5 6.5 6.5 6.5 6.5 6.5 6.5 6.5 6.5 6.5 6.5 6.8 6.8 7.0 6.7 5.3 4.8 5.2
2.4 6.5 3.8 1.2 2.2 6.3 6.5 6.5 6.5 5.5 6.4 6.1 6.5 6.4 6.5 6.5 6.5 6.5 6.5 6.5 5.9 5.9 3.2 5.4 6.5 6.5 6.5 6.5 6.5 6.5 6.5 6.5 6.5 6.5 6.5 6.5 6.5 6.5 6.5 6.5 6.9 6.7 6.0 6.1 5.8
1.7 5.8 4.6 6.5 6.2 6.5 6.4 6.5 6.5 6.5 6.3 5.9 6.5 6.5 6.5 6.5 6.5 6.5 6.5 6.5 6.3 5.3 6.1 6.5 6.5 6.5 6.5 6.5 6.5 6.5 6.5 6.5 6.5 6.5 6.5 6.5 6.5 6.5 6.5 6.5 6.9 7.2 6.9 6.0 5.6
2.7 4.4 2.7 5.3 3.9 6.5 6.5 6.5 6.5 6.5 6.5 6.5 6.5 6.5 6.5 6.5 6.5 6.5 6.5 6.5 6.5 6.5 6.5 6.5 6.5 6.5 6.5 6.5 6.5 6.5 6.5 6.5 6.5 6.5 6.5 6.5 6.5 6.5 6.6 7.0 6.9 6.9 6.4 6.4 5.7
0.7 0.3 1.7 5.9 6.4 6.5 6.5 6.5 6.5 6.3 6.2 5.7 6.3 6.5 6.5 6.5 5.3 4.8 4.4 4.9 6.1 6.5 6.5 6.5 6.5 6.5 6.5 6.5 6.5 6.5 6.5 6.5 6.5 6.5 6.5 6.5 6.5 6.6 6.5 6.7 6.8 7.0 6.7 6.0 5.1
Wind_Speed
16 17 16 17 17 17 16 17 15 14 12 12 13 15 15 16 19 3 8 12 8 8 6 7 4 5 3 3 3 3 1 4 6 8 7 7 4 5 2 9 3 3 5 9 19
17 18 17 17 18 17 16 16 15 13 11 12 13 14 14 16 9 11 15 15 15 17 5 6 5 6 3 3 3 3 2 6 3 9 13 14 10 7 5 6 3 6 8 19 18
18 19 17 17 19 16 16 16 13 11 10 11 12 13 13 14 5 7 4 21 19 19 5 5 5 4 2 2 4 4 3 4 4 6 4 12 5 3 14 5 4 11 17 17 15
18 20 19 17 17 15 15 14 11 9 10 9 9 11 12 3 0 3 8 21 22 12 8 6 4 4 4 4 4 3 4 2 5 4 7 7 9 5 3 1 3 16 22 18 17
17 19 18 17 16 13 13 12 9 9 8 7 8 9 4 2 9 2 9 16 11 7 9 6 5 5 5 5 6 4 2 2 4 6 9 6 5 6 3 4 13 16 17 18 15
17 19 15 15 14 13 11 9 7 5 5 5 5 5 1 4 4 8 12 10 7 7 6 7 6 6 3 2 4 4 4 5 5 5 3 7 3 3 6 4 13 17 16 13 13
17 17 13 13 12 12 10 8 4 2 2 4 3 1 2 12 1 10 6 6 8 8 6 5 5 2 4 2 3 4 7 6 7 3 4 3 5 5 9 1 11 11 9 10 9
17 16 12 11 11 10 7 3 1 0 1 3 2 1 8 5 2 6 5 4 5 5 3 3 7 1 2 2 5 4 4 4 2 1 4 1 3 7 13 6 9 10 9 9 8
16 14 11 9 10 6 1 3 3 2 2 2 3 1 9 9 2 3 6 2 7 4 5 6 7 4 2 4 3 7 3 3 4 9 2 7 1 9 8 10 9 9 8 8 9
15 12 9 8 8 5 6 5 5 4 2 3 1 2 6 2 4 4 3 1 4 7 6 2 3 3 3 3 4 4 4 2 5 4 11 11 5 8 9 9 9 9 9 9 8
14 11 7 8 7 10 10 3 3 1 4 6 3 4 5 7 3 3 2 2 3 7 4 1 4 4 3 3 3 5 3 6 3 3 7 8 8 9 7 9 7 7 9 10 10
13 10 4 8 13 13 4 3 5 2 2 11 6 7 6 3 2 3 2 3 4 3 2 6 5 2 5 5 6 5 6 4 5 4 6 8 11 8 8 4 4 9 10 11 12
10 7 7 12 17 7 5 9 1 5 2 3 6 4 3 5 2 1 2 2 4 3 2 6 2 3 5 4 7 4 7 4 5 7 8 7 5 4 6 7 8 8 9 11 14
9 9 14 20 7 4 5 5 14 5 4 4 3 2 2 3 3 1 3 4 4 4 3 6 2 4 4 3 1 4 4 11 11 2 3 3 3 1 2 5 6 7 8 10 13
10 13 21 14 2 4 3 2 6 2 3 4 2 1 3 4 3 3 3 5 6 4 2 0 3 3 5 2 1 4 6 7 3 4 3 2 2 3 5 7 9 9 7 9 10
13 16 21 6 2 7 9 2 3 6 3 2 2 2 4 6 4 4 4 5 4 5 5 3 2 2 3 2 4 10 6 6 3 2 0 1 2 5 10 14 13 9 8 10 11
15 18 17 9 4 8 1 2 5 4 2 2 3 3 4 2 4 4 4 4 3 4 3 4 2 1 1 5 3 5 4 2 1 1 3 1 2 5 15 12 16 16 14 13 10
15 17 11 9 4 10 2 5 3 3 5 1 3 3 4 2 3 4 3 3 5 4 3 4 0 2 4 2 4 2 4 4 5 4 2 1 5 3 3 12 15 16 14 11 10
18 4 5 4 17 3 3 4 6 6 3 6 3 5 1 1 4 3 3 2 1 1 4 3 1 2 3 1 1 3 2 2 6 2 1 2 3 6 1 10 11 13 13 13 11
5 4 4 1 13 3 5 5 3 4 1 2 4 2 3 2 3 3 1 1 2 1 1 5 3 1 1 2 6 1 6 3 2 4 3 2 5 5 6 14 12 13 14 12 9
3 3 2 3 3 5 4 5 5 5 5 5 5 3 3 4 3 2 5 1 2 1 2 3 3 2 1 0 4 3 2 5 4 1 3 2 4 4 8 13 16 16 13 13 12
4 3 1 3 4 1 4 5 3 3 3 4 4 3 5 3 4 4 6 1 1 1 5 1 4 3 1 0 1 1 3 4 3 4 1 0 5 1 6 8 9 9 9 11 13
4 2 1 4 4 0 2 2 2 2 1 2 2 3 2 4 4 2 3 2 1 3 5 5 1 3 3 2 1 2 2 4 5 2 5 3 3 0 3 4 8 11 11 12 14
4 3 3 3 1 8 5 3 1 2 2 2 4 3 4 2 3 4 3 2 2 3 7 5 3 4 7 3 1 4 4 4 3 3 4 6 4 4 5 7 7 9 12 15 14
1 3 3 3 1 5 4 6 5 2 1 2 3 2 5 4 2 3 2 2 3 1 3 2 4 2 1 1 1 2 4 8 7 4 6 4 8 6 9 12 11 9 12 14 14
4 5 3 2 6 6 2 6 6 2 1 2 5 3 2 5 6 8 6 4 4 2 2 2 4 2 4 1 3 3 5 7 6 3 10 4 11 9 1 7 11 14 15 15 14
1 2 5 3 3 6 6 6 8 5 1 3 5 4 3 1 3 4 6 8 5 5 3 2 6 3 3 2 2 5 9 10 5 5 7 8 8 5 6 11 15 16 16 15 14
Wind_Direction
294 295 294 296 297 293 290 292 296 300 303 304 304 306 312 318 315 263 235 218 188 171 144 127 112 147 126 169 147 124 176 187 188 122 108 82 39 147 137 137 69 77 156 150 149
294 294 296 300 295 296 293 287 290 296 299 300 304 310 317 327 308 254 242 218 207 175 148 143 147 146 164 187 158 168 190 216 217 126 195 162 189 142 126 145 108 101 108 130 142
294 295 297 299 295 295 290 286 288 295 293 303 308 313 322 331 295 249 298 201 187 173 163 158 114 137 196 155 180 174 213 211 247 158 170 144 100 157 144 190 190 152 141 143 145
293 296 298 300 292 292 284 284 287 286 296 301 312 316 322 328 74 263 348 177 175 163 130 137 142 155 180 198 169 206 231 219 353 97 106 124 130 100 107 52 192 153 151 150 162
295 294 299 298 292 288 281 278 276 281 290 306 313 320 340 265 251 310 84 136 143 153 163 154 160 170 181 186 156 178 229 69 34 109 100 121 97 132 60 56 121 138 159 163 168
292 292 297 295 290 283 274 270 270 279 285 297 299 315 323 273 215 129 121 136 172 161 166 155 203 203 147 196 193 133 116 107 71 96 87 118 87 106 13 136 132 156 170 165 170
289 291 292 288 286 277 267 265 266 289 287 277 267 287 270 242 352 147 155 189 175 178 167 214 159 211 134 155 171 118 82 66 30 41 74 50 47 34 340 216 133 139 147 151 159
289 288 290 287 285 273 262 267 84 297 273 247 266 160 250 238 256 244 171 222 176 198 202 194 152 149 319 122 43 79 62 103 22 66 31 103 164 5 351 134 110 128 135 130 93
285 283 283 284 277 256 200 98 105 144 203 159 115 146 268 314 216 261 184 186 150 154 179 87 121 149 93 123 73 24 122 123 96 17 100 38 48 344 350 114 95 97 110 106 94
277 275 270 270 251 178 134 118 152 163 189 162 232 273 261 284 297 320 210 72 107 124 116 135 74 106 83 136 159 152 137 133 116 19 56 77 54 6 27 105 110 114 112 105 91
271 268 267 249 193 150 118 119 115 193 221 192 194 272 295 291 282 333 9 108 47 47 58 350 119 117 103 55 127 120 106 105 65 149 77 76 66 32 45 78 105 120 126 116 100
262 260 238 201 158 155 143 228 229 231 304 219 257 281 253 261 355 330 32 69 59 85 312 46 75 337 74 67 89 95 126 99 89 112 93 99 62 54 44 56 112 135 130 125 120
251 229 194 164 140 151 223 233 19 359 122 244 193 214 229 152 158 267 56 106 80 57 358 116 124 81 77 79 121 68 103 165 132 105 96 116 69 44 51 86 102 100 108 115 127
231 191 173 146 147 171 230 255 236 199 79 289 241 253 129 124 61 320 15 114 47 136 132 78 31 115 103 108 222 87 108 127 122 84 138 323 170 132 120 119 125 125 125 132 137
208 187 170 167 104 209 241 353 138 73 92 254 224 170 42 127 156 12 338 41 141 150 169 223 112 99 75 307 136 118 133 118 97 102 152 68 121 148 171 195 184 175 157 153 153
198 180 172 233 264 247 320 78 59 49 255 208 197 119 67 16 15 307 60 43 136 85 41 92 51 55 122 52 60 143 94 54 56 70 257 161 222 192 194 199 187 185 182 171 169
193 178 175 167 208 358 145 77 45 127 309 204 151 107 88 33 35 32 33 37 119 101 34 25 3 296 113 101 90 76 98 91 180 202 229 335 204 259 206 187 183 184 185 183 183
183 174 232 240 249 11 35 58 150 225 220 27 121 95 114 174 30 17 85 77 31 76 107 144 287 18 350 80 148 109 165 164 197 197 202 130 229 236 212 200 183 187 180 173 183
145 164 259 252 232 143 89 77 204 210 201 159 80 95 70 79 114 74 56 103 44 12 123 138 141 351 38 87 151 159 168 113 106 24 214 228 272 267 167 188 180 165 168 181 180
142 177 241 221 150 119 80 208 222 208 231 170 138 136 145 150 86 80 155 249 131 47 200 188 113 54 100 108 56 127 135 120 45 155 249 251 271 241 202 195 192 183 185 181 169
120 175 227 97 111 63 156 214 233 239 203 178 154 122 134 139 120 140 178 278 193 102 115 129 105 252 180 8 165 142 127 65 102 66 175 290 256 214 229 203 201 202 187 177 170
145 182 264 123 72 51 153 195 196 277 164 215 117 107 146 146 137 160 180 196 131 191 155 158 124 132 156 301 302 112 140 139 126 188 71 232 273 162 268 251 220 195 172 173 165
153 166 357 108 134 260 263 190 176 303 306 131 100 111 94 137 114 143 143 105 157 141 161 187 52 89 22 352 356 212 138 109 105 101 189 164 260 60 294 253 218 182 169 162 154
137 119 4 54 51 137 146 161 142 221 246 104 119 86 104 99 36 156 133 48 87 98 57 86 110 161 188 189 160 174 174 168 141 141 171 232 267 262 246 226 198 177 166 161 164
33 181 169 181 287 132 130 163 149 270 207 51 81 157 148 120 98 128 129 123 42 124 59 104 148 119 99 19 250 221 181 187 204 179 191 227 214 244 232 217 203 181 164 167 177
136 129 37 87 130 117 158 192 149 207 208 120 124 134 140 150 181 189 146 189 185 66 84 15 160 149 183 347 13 277 238 206 229 229 255 251 268 221 333 155 177 186 180 186 189
195 60 109 315 100 126 195 182 178 145 37 54 145 119 97 104 88 68 78 78 103 137 130 106 140 134 239 2 12 318 224 199 191 206 200 217 242 176 199 205 200 191 193 194 198